This demonstration page uses our WeatherBlox Daily Observations layout. Learn more.

Left ArrowRight Arrow

38.89511, -77.03637

Hourly Observations for November 20, 2015

Temp ( °F °C ) Dew Point ( °F °C ) Humidity (%) Winds ( mph kmh ) Pressure ( in mb ) Visibility ( mi km ) Precip ( " mm )
12:52 am 00:52 Clear 59 15 46 7.8 62 62 NNW 7 11 30.04 1017 10 16 0.00 0.00
1:52 am 01:52 Partly Cloudy 59 15 43 6.1 56 56 NW 9 15 30.06 1018 10 16 0.00 0.00
2:52 am 02:52 Clear 55 12.8 44 6.7 67 67 N 12 19 30.08 1019 10 16 0.00 0.00
3:52 am 03:52 Mostly Clear 54 12.2 41 5 62 62 N 14 22 30.11 1020 10 16 0.00 0.00
4:52 am 04:52 Clear 51 10.6 31 -0.6 46 46 NNW 15 24 30.13 1020 10 16 0.00 0.00
5:52 am 05:52 Partly Cloudy 49 9.4 31 -0.6 50 50 N 12 19 30.15 1021 10 16 0.00 0.00
6:52 am 06:52 Mostly Clear 49 9.4 29 -1.7 46 46 NNW 13 20 30.19 1022 10 16 0.00 0.00
7:52 am 07:52 Mostly Sunny 49 9.4 30 -1.1 48 48 NNW 12 19 30.22 1023 10 16 0.00 0.00
8:52 am 08:52 Mostly Sunny 50 10 26 -3.3 39 39 NNW 21 33 30.24 1024 10 16 0.00 0.00
9:52 am 09:52 Sunny 51 10.6 24 -4.4 35 35 NNW 21 33 30.25 1025 10 16 0.00 0.00
10:52 am 10:52 Sunny 52 11.1 24 -4.4 34 34 N 14 22 30.26 1025 10 16 0.00 0.00
11:52 am 11:52 Sunny 54 12.2 23 -5 30 30 NNW 17 28 30.24 1024 10 16 0.00 0.00
12:52 pm 12:52 Sunny 55 12.8 18 -7.8 23 23 NNW 16 26 30.22 1023 10 16 0.00 0.00
1:52 pm 13:52 Mostly Sunny 56 13.3 18 -7.8 22 22 NNW 16 26 30.20 1023 10 16 0.00 0.00
2:52 pm 14:52 Partly Cloudy 55 12.8 15 -9.4 20 20 NNW 15 24 30.19 1023 10 16 0.00 0.00
3:52 pm 15:52 Mostly Sunny 55 12.8 16 -8.9 21 21 NNW 10 17 30.21 1023 10 16 0.00 0.00
4:52 pm 16:52 Mostly Clear 53 11.7 14 -10 21 21 NW 8 13 30.21 1023 10 16 0.00 0.00
5:52 pm 17:52 Mostly Clear 51 10.6 16 -8.9 25 25 NNW 8 13 30.24 1024 10 16 0.00 0.00
6:52 pm 18:52 Clear 50 10 15 -9.4 25 25 NNW 8 13 30.26 1025 10 16 0.00 0.00
7:52 pm 19:52 Clear 49 9.4 16 -8.9 27 27 NNW 6 9 30.27 1025 10 16 0.00 0.00
8:52 pm 20:52 Clear 46 7.8 21 -6.1 37 37 NNW 7 11 30.27 1025 10 16 0.00 0.00
9:52 pm 21:52 Clear 47 8.3 18 -7.8 31 31 N 9 15 30.27 1025 10 16 0.00 0.00
10:52 pm 22:52 Partly Cloudy 46 7.8 20 -6.7 35 35 NNW 8 13 30.28 1025 10 16 0.00 0.00
11:52 pm 23:52 Partly Cloudy 43 6.1 24 -4.4 47 47 N 6 9 30.28 1025 10 16 0.00 0.00

Powered by AerisWeather